This is the latest recevied weather packets stored in our database for station/object N3LF. If no packets are shown the sender has not sent any weather packets the latest 10 day(s).
| Time | Temp. | Humidity | Pressure | Rain* | Wind** | Luminosity | Snow |
|---|---|---|---|---|---|---|---|
| 1788315898 | 25° C | 95% | 1020 hPa | 0 mm | - | 0 W/m² | - |
| 1788315600 | 25.56° C | 95% | 1020.1 hPa | 0 mm | - | 0 W/m² | - |
| 1788315289 | 25.56° C | 94% | 1020 hPa | 0 mm | - | 0 W/m² | - |
| 1788314984 | 25.56° C | 94% | 1020 hPa | 0 mm | - | 0 W/m² | - |
| 1788314680 | 25.56° C | 93% | 1020 hPa | 0 mm | - | 0 W/m² | - |
| 1788314375 | 25.56° C | 92% | 1020 hPa | 0 mm | - | 0 W/m² | - |
| 1788314071 | 26.11° C | 90% | 1019.8 hPa | 0 mm | - | 0 W/m² | - |
| 1788313766 | 26.11° C | 89% | 1019.8 hPa | 0 mm | - | 0 W/m² | - |
| 1788313463 | 26.67° C | 88% | 1019.9 hPa | 0 mm | - | 0 W/m² | - |
| 1788313162 | 26.67° C | 87% | 1019.9 hPa | 0 mm | - | 0 W/m² | - |
| 1788312858 | 26.67° C | 84% | 1019.8 hPa | 0 mm | - | 0 W/m² | - |
| 1788312553 | 26.67° C | 85% | 1019.9 hPa | 0 mm | - | 0 W/m² | - |
| 1788312249 | 26.67° C | 86% | 1019.9 hPa | 0 mm | - | 0 W/m² | - |
| 1788311944 | 26.67° C | 85% | 1019.6 hPa | 0 mm | - | 0 W/m² | - |
| 1788311639 | 27.22° C | 83% | 1019.6 hPa | 0 mm | - | 0 W/m² | - |
| 1788311338 | 27.22° C | 83% | 1019.5 hPa | 0 mm | - | 0 W/m² | - |
| 1788311034 | 27.22° C | 85% | 1019.6 hPa | 0 mm | - | 0 W/m² | - |
| 1788310733 | 27.78° C | 79% | 1019.5 hPa | 0 mm | - | 0 W/m² | - |
| 1788310432 | 28.33° C | 78% | 1019.5 hPa | 0 mm | - | 0 W/m² | - |
| 1788310128 | 28.89° C | 78% | 1019.5 hPa | 0 mm | - | 0 W/m² | - |
| 1788309828 | 28.89° C | 75% | 1019.3 hPa | 0 mm | - | 0 W/m² | - |
| 1788309524 | 28.89° C | 75% | 1019.2 hPa | 0 mm | - | 0 W/m² | - |
| 1788309224 | 28.89° C | 74% | 1019.5 hPa | 0 mm | - | 0 W/m² | - |
| 1788308919 | 29.44° C | 74% | 1019.5 hPa | 0 mm | - | 1 W/m² | - |
| 1788308618 | 30° C | 73% | 1019.6 hPa | 0 mm | - | 2 W/m² | - |
* Rain latest hour (hover to see other rain measurements)
** Current wind speed in m/s (hover to see current wind gust speed)